FW1574 Weather Reports


Display with metric or nautical units.
time (UTC)temp
F
wind
direction
speed
MPH
gust
MPH
rain 1hr
in
rain 24hr
in
rain mn
in
humidity
%
barometer
mb
20260903212027 94 63 0.0 0.0 0.00 0.00 0.00 52 1013.0
20260903211526 94 77 0.0 0.0 0.00 0.00 0.00 52 1013.0
20260903211025 94 74 0.0 0.0 0.00 0.00 0.00 52 1013.1
20260903210525 95 79 0.0 0.0 0.00 0.00 0.00 50 1013.3
20260903210028 95 125 0.0 0.0 0.00 0.00 0.00 49 1013.3
20260903205525 95 107 0.0 0.0 0.00 0.00 0.00 49 1013.3
20260903205026 95 80 0.0 0.0 0.00 0.00 0.00 50 1013.3
20260903204524 94 86 0.0 0.0 0.00 0.00 0.00 52 1013.4
20260903204024 94 63 0.0 0.0 0.00 0.00 0.00 51 1013.4
20260903203523 94 49 0.0 0.0 0.00 0.00 0.00 52 1013.3
20260903203024 94 57 0.0 0.0 0.00 0.00 0.00 56 1013.3
20260903202523 93 122 0.0 0.0 0.00 0.00 0.00 55 1013.3
20260903202027 91 95 0.0 0.0 0.00 0.00 0.00 61 1013.4
20260903201522 91 95 0.0 0.0 0.00 0.00 0.00 63 1013.4
20260903201022 92 95 0.0 0.0 0.00 0.00 0.00 61 1013.5
20260903200521 92 95 0.0 0.0 0.00 0.00 0.00 61 1013.6
20260903200021 92 95 0.0 0.0 0.00 0.00 0.00 59 1013.6
20260903195519 92 95 0.0 0.0 0.00 0.00 0.00 59 1013.8
20260903195019 93 95 0.0 0.0 0.00 0.00 0.00 55 1013.8
20260903194519 94 94 0.0 0.0 0.00 0.00 0.00 50 1013.9
20260903194025 94 130 0.0 0.0 0.00 0.00 0.00 51 1014.0
20260903193517 94 89 0.0 0.0 0.00 0.00 0.00 52 1014.1
20260903193019 94 93 0.0 0.0 0.00 0.00 0.00 53 1014.0
20260903192517 95 71 0.0 0.0 0.00 0.00 0.00 51 1014.2
20260903192017 95 88 0.0 0.0 0.00 0.00 0.00 52 1014.2
20260903191525 95 209 0.0 0.0 0.00 0.00 0.00 54 1014.2
20260903191017 95 82 0.0 0.0 0.00 0.00 0.00 52 1014.3
20260903190513 94 90 0.0 0.0 0.00 0.00 0.00 55 1014.3
20260903190014 94 119 0.0 0.0 0.00 0.00 0.00 53 1014.6
20260903185512 93 98 0.0 0.0 0.00 0.00 0.00 55 1014.5
20260903185012 93 39 0.0 0.0 0.00 0.00 0.00 56 1014.4
20260903184513 93 346 0.0 0.0 0.00 0.00 0.00 56 1014.5
20260903184012 94 360 0.0 0.0 0.00 0.00 0.00 54 1014.6
20260903183510 94 129 0.0 0.0 0.00 0.00 0.00 53 1014.7
20260903183020 95 88 0.0 0.0 0.00 0.00 0.00 54 1014.9
20260903182508 94 340 0.0 0.0 0.00 0.00 0.00 57 1014.9
20260903182008 93 104 0.0 0.0 0.00 0.00 0.00 55 1014.9
20260903181506 93 223 0.0 0.0 0.00 0.00 0.00 54 1015.0
20260903181006 94 322 0.0 0.0 0.00 0.00 0.00 56 1015.0
20260903180505 94 266 0.0 0.0 0.00 0.00 0.00 58 1015.1
20260903180005 94 241 0.0 0.0 0.00 0.00 0.00 58 1015.2
20260903175504 93 333 0.0 0.0 0.00 0.00 0.00 58 1015.2
20260903175003 94 265 0.0 0.0 0.00 0.00 0.00 56 1015.2
20260903174502 93 346 0.0 0.0 0.00 0.00 0.00 58 1015.3
20260903174003 94 346 0.0 0.0 0.00 0.00 0.00 58 1015.4
20260903173501 93 43 0.0 0.0 0.00 0.00 0.00 61 1015.4
20260903173001 93 297 0.0 0.0 0.00 0.00 0.00 59 1015.4
20260903172502 93 325 0.0 0.0 0.00 0.00 0.00 60 1015.5
20260903172001 93 269 0.0 0.0 0.00 0.00 0.00 60 1015.7
20260903171600 93 355 0.0 0.0 0.00 0.00 0.00 61 1015.7
20260903171059 93 355 0.0 0.0 0.00 0.00 0.00 62 1015.8
20260903170559 92 355 0.0 0.0 0.00 0.00 0.00 62 1015.9
20260903170057 92 187 0.0 0.0 0.00 0.00 0.00 62 1016.0
20260903165556 92 281 0.0 0.0 0.00 0.00 0.00 62 1016.0
20260903165056 92 280 0.0 0.0 0.00 0.00 0.00 63 1016.1
20260903164555 91 200 0.0 0.0 0.00 0.00 0.00 61 1016.1
20260903164055 91 336 0.0 0.0 0.00 0.00 0.00 64 1016.2
20260903163554 91 277 0.0 0.0 0.00 0.00 0.00 63 1016.3
20260903163123 91 304 0.0 0.0 0.00 0.00 0.00 65 1016.3
20260903162552 90 228 0.0 0.0 0.00 0.00 0.00 66 1016.3
20260903162051 90 351 0.0 0.0 0.00 0.00 0.00 65 1016.4
20260903161550 90 229 0.0 0.0 0.00 0.00 0.00 65 1016.4
20260903161050 89 29 0.0 0.0 0.00 0.00 0.00 65 1016.4
20260903160550 90 24 0.0 0.0 0.00 0.00 0.00 65 1016.5
20260903160050 89 329 0.0 0.0 0.00 0.00 0.00 67 1016.5
20260903155548 89 90 0.0 0.0 0.00 0.00 0.00 68 1016.6
20260903155049 88 266 0.0 0.0 0.00 0.00 0.00 68 1016.5
20260903154547 88 318 0.0 0.0 0.00 0.00 0.00 68 1016.6
20260903154045 88 323 0.0 0.0 0.00 0.00 0.00 69 1016.6
20260903153544 87 323 0.0 0.0 0.00 0.00 0.00 69 1016.7
20260903153043 87 269 0.0 0.0 0.00 0.00 0.00 71 1016.6
20260903152542 86 275 0.0 0.0 0.00 0.00 0.00 72 1016.6
20260903152045 86 255 0.0 0.0 0.00 0.00 0.00 71 1016.7
20260903151542 86 269 0.0 0.0 0.00 0.00 0.00 67 1016.7
20260903151040 86 318 0.0 0.0 0.00 0.00 0.00 70 1016.7
20260903150539 85 327 0.0 0.0 0.00 0.00 0.00 71 1016.7
20260903150037 85 327 0.0 0.0 0.00 0.00 0.00 72 1016.7
20260903145536 85 327 0.0 0.0 0.00 0.00 0.00 76 1016.7
20260903145035 85 86 0.0 0.0 0.00 0.00 0.00 78 1016.7
20260903144538 84 86 0.0 0.0 0.00 0.00 0.00 77 1016.7
20260903144037 84 86 0.0 0.0 0.00 0.00 0.00 80 1016.7
20260903143532 84 86 0.0 0.0 0.00 0.00 0.00 80 1016.7
20260903143032 83 86 0.0 0.0 0.00 0.00 0.00 81 1016.7
20260903142532 83 86 0.0 0.0 0.00 0.00 0.00 83 1016.7
20260903142033 83 86 0.0 0.0 0.00 0.00 0.00 82 1016.7
20260903141530 82 86 0.0 0.0 0.00 0.00 0.00 83 1016.7
20260903141029 82 86 0.0 0.0 0.00 0.00 0.00 85 1016.8
20260903140529 82 86 0.0 0.0 0.00 0.00 0.00 83 1016.8
20260903140028 82 86 0.0 0.0 0.00 0.00 0.00 84 1016.8
20260903135526 81 86 0.0 0.0 0.00 0.00 0.00 88 1016.7
20260903135025 80 86 0.0 0.0 0.00 0.00 0.00 87 1016.8
20260903134525 80 86 0.0 0.0 0.00 0.00 0.00 87 1016.8
20260903134023 80 86 0.0 0.0 0.00 0.00 0.00 88 1016.8
20260903133525 79 86 0.0 0.0 0.00 0.00 0.00 88 1016.8
20260903133022 79 86 0.0 0.0 0.00 0.00 0.00 89 1016.8
20260903132524 78 86 0.0 0.0 0.00 0.00 0.00 90 1016.8
20260903132019 78 86 0.0 0.0 0.00 0.00 0.00 91 1016.8
20260903131518 77 86 0.0 0.0 0.00 0.00 0.00 92 1016.8
20260903131017 76 86 0.0 0.0 0.00 0.00 0.00 93 1016.9
20260903130517 76 86 0.0 0.0 0.00 0.00 0.00 93 1016.9
20260903130015 76 86 0.0 0.0 0.00 0.00 0.00 94 1016.9
20260903125515 75 86 0.0 0.0 0.00 0.00 0.00 95 1016.9
20260903125015 75 86 0.0 0.0 0.00 0.00 0.00 95 1016.9
20260903124515 74 86 0.0 0.0 0.00 0.00 0.00 96 1016.9
20260903124014 74 86 0.0 0.0 0.00 0.00 0.00 96 1016.9
20260903123520 74 86 0.0 0.0 0.00 0.00 0.00 96 1017.0
20260903123014 73 86 0.0 0.0 0.00 0.00 0.00 96 1017.0
20260903122517 73 86 0.0 0.0 0.00 0.00 0.00 96 1017.0
20260903122014 72 86 0.0 0.0 0.00 0.00 0.00 96 1017.0
20260903121523 72 86 0.0 0.0 0.00 0.00 0.00 96 1017.0
20260903121013 72 86 0.0 0.0 0.00 0.00 0.00 96 1016.9
20260903120512 72 86 0.0 0.0 0.00 0.00 0.00 96 1016.9
20260903120012 72 86 0.0 0.0 0.00 0.00 0.00 96 1016.8
20260903115513 72 86 0.0 0.0 0.00 0.00 0.00 96 1016.7
20260903115010 72 86 0.0 0.0 0.00 0.00 0.00 96 1016.7
20260903114510 72 86 0.0 0.0 0.00 0.00 0.00 96 1016.7
20260903114009 72 86 0.0 0.0 0.00 0.00 0.00 96 1016.6
20260903113511 72 86 0.0 0.0 0.00 0.00 0.00 96 1016.6
20260903113009 72 86 0.0 0.0 0.00 0.00 0.00 96 1016.5
20260903112509 72 86 0.0 0.0 0.00 0.00 0.00 96 1016.5
20260903112009 71 86 0.0 0.0 0.00 0.00 0.00 96 1016.4
20260903111507 72 86 0.0 0.0 0.00 0.00 0.00 96 1016.3
20260903111010 72 86 0.0 0.0 0.00 0.00 0.00 96 1016.3
20260903110510 72 86 0.0 0.0 0.00 0.00 0.00 96 1016.3
20260903110005 72 86 0.0 0.0 0.00 0.00 0.00 96 1016.2
20260903105505 72 86 0.0 0.0 0.00 0.00 0.00 96 1016.2
20260903105005 72 86 0.0 0.0 0.00 0.00 0.00 96 1016.1
20260903104505 72 86 0.0 0.0 0.00 0.00 0.00 96 1016.2
20260903104005 72 86 0.0 0.0 0.00 0.00 0.00 96 1016.1
20260903103504 72 86 0.0 0.0 0.00 0.00 0.00 96 1016.1
20260903103004 72 86 0.0 0.0 0.00 0.00 0.00 96 1016.1
20260903102503 72 86 0.0 0.0 0.00 0.00 0.00 96 1016.0
20260903102005 72 86 0.0 0.0 0.00 0.00 0.00 96 1015.9
20260903101505 72 86 0.0 0.0 0.00 0.00 0.00 96 1016.0
20260903101002 72 86 0.0 0.0 0.00 0.00 0.00 96 1015.9
20260903100604 72 86 0.0 0.0 0.00 0.00 0.00 96 1015.9
20260903100100 72 86 0.0 0.0 0.00 0.00 0.00 96 1015.9
20260903095559 72 86 0.0 0.0 0.00 0.00 0.00 96 1015.8
20260903095059 72 86 0.0 0.0 0.00 0.00 0.00 96 1015.8
20260903094601 72 86 0.0 0.0 0.00 0.00 0.00 96 1015.8
20260903094058 72 86 0.0 0.0 0.00 0.00 0.00 96 1015.8
20260903093559 72 86 0.0 0.0 0.00 0.00 0.00 96 1015.9
20260903093059 72 86 0.0 0.0 0.00 0.00 0.00 96 1015.8
20260903092557 72 86 0.0 0.0 0.00 0.00 0.00 96 1015.8
20260903092056 72 86 0.0 0.0 0.00 0.00 0.00 96 1015.8
20260903091557 72 86 0.0 0.0 0.00 0.00 0.00 96 1015.8
20260903091056 72 86 0.0 0.0 0.00 0.00 0.00 96 1015.7
20260903090556 72 86 0.0 0.0 0.00 0.00 0.00 96 1015.8
20260903090056 72 86 0.0 0.0 0.00 0.00 0.00 96 1015.8
20260903085554 72 86 0.0 0.0 0.00 0.00 0.00 95 1015.8
20260903085054 72 86 0.0 0.0 0.00 0.00 0.00 95 1015.8
20260903084557 72 86 0.0 0.0 0.00 0.00 0.00 95 1015.8
20260903084054 72 86 0.0 0.0 0.00 0.00 0.00 95 1015.7
20260903083556 73 86 0.0 0.0 0.00 0.00 0.00 95 1015.6
20260903083053 73 86 0.0 0.0 0.00 0.00 0.00 95 1015.7
20260903082553 73 86 0.0 0.0 0.00 0.00 0.00 95 1015.7
20260903082052 73 86 0.0 0.0 0.00 0.00 0.00 95 1015.7
20260903081551 73 86 0.0 0.0 0.00 0.00 0.00 95 1015.8
20260903081052 73 86 0.0 0.0 0.00 0.00 0.00 95 1015.6
20260903080550 73 86 0.0 0.0 0.00 0.00 0.00 95 1015.6
20260903080050 73 86 0.0 0.0 0.00 0.00 0.00 95 1015.6
20260903075551 73 86 0.0 0.0 0.00 0.00 0.00 95 1015.6
20260903075050 73 86 0.0 0.0 0.00 0.00 0.00 95 1015.7
20260903074614 73 86 0.0 0.0 0.00 0.00 0.00 95 1015.6
20260903074050 73 86 0.0 0.0 0.00 0.00 0.00 95 1015.5
20260903073549 73 86 0.0 0.0 0.00 0.00 0.00 95 1015.5
20260903073056 73 86 0.0 0.0 0.00 0.00 0.00 94 1015.4
20260903072548 74 86 0.0 0.0 0.00 0.00 0.00 94 1015.4
20260903072048 74 86 0.0 0.0 0.00 0.00 0.00 94 1015.4
20260903071548 74 86 0.0 0.0 0.00 0.00 0.00 94 1015.5
20260903071047 74 86 0.0 0.0 0.00 0.00 0.00 94 1015.4
20260903070546 74 86 0.0 0.0 0.00 0.00 0.00 94 1015.4
20260903070047 74 86 0.0 0.0 0.00 0.00 0.00 94 1015.4
20260903065550 74 86 0.0 0.0 0.00 0.00 0.00 94 1015.3
20260903065046 74 86 0.0 0.0 0.00 0.00 0.00 94 1015.4
20260903064546 74 86 0.0 0.0 0.00 0.00 0.00 94 1015.4
20260903064045 74 86 0.0 0.0 0.00 0.00 0.00 94 1015.4
20260903063544 74 86 0.0 0.0 0.00 0.00 0.00 95 1015.5
20260903063051 74 86 0.0 0.0 0.00 0.00 0.00 95 1015.5
20260903062545 74 86 0.0 0.0 0.00 0.00 0.00 95 1015.5
20260903062045 74 86 0.0 0.0 0.00 0.00 0.00 95 1015.6
20260903061559 74 86 0.0 0.0 0.00 0.00 0.00 95 1015.6
20260903061043 74 86 0.0 0.0 0.00 0.00 0.00 95 1015.6
20260903060542 74 86 0.0 0.0 0.00 0.00 0.00 94 1015.6
20260903060042 74 86 0.0 0.0 0.00 0.00 0.00 94 1015.7
20260903055542 74 86 0.0 0.0 0.00 0.00 0.00 94 1015.7
20260903055042 74 86 0.0 0.0 0.00 0.00 0.00 94 1015.8
20260903054542 74 86 0.0 0.0 0.00 0.00 0.00 94 1015.8
20260903054041 74 86 0.0 0.0 0.00 0.00 0.00 94 1015.8
20260903053540 74 86 0.0 0.0 0.00 0.00 0.00 94 1015.8
20260903053040 74 86 0.0 0.0 0.00 0.00 0.00 93 1015.7
20260903052540 74 86 0.0 0.0 0.00 0.00 0.00 93 1015.8
20260903052043 74 86 0.0 0.0 0.00 0.00 0.00 93 1015.7
20260903051539 74 86 0.0 0.0 0.00 0.00 0.00 93 1015.7
20260903051038 74 86 0.0 0.0 0.00 0.00 0.00 92 1015.6
20260903050537 75 86 0.0 0.0 0.00 0.00 0.00 92 1015.6
20260903050038 74 86 0.0 0.0 0.00 0.00 0.00 92 1015.6
20260903045538 74 86 0.0 0.0 0.00 0.00 0.00 92 1015.6
20260903045037 74 86 0.0 0.0 0.00 0.00 0.00 92 1015.6
20260903044540 74 86 0.0 0.0 0.00 0.00 0.00 92 1015.6
20260903044036 75 86 0.0 0.0 0.00 0.00 0.00 92 1015.7
20260903043537 75 86 0.0 0.0 0.00 0.00 0.00 92 1015.6
20260903043035 75 86 0.0 0.0 0.00 0.00 0.00 92 1015.6
20260903042535 75 86 0.0 0.0 0.00 0.00 0.00 92 1015.6
20260903042038 75 86 0.0 0.0 0.00 0.00 0.00 92 1015.6
20260903041536 75 86 0.0 0.0 0.00 0.00 0.00 91 1015.5
20260903041033 76 86 0.0 0.0 0.00 0.00 0.00 91 1015.6
20260903040533 76 86 0.0 0.0 0.00 0.00 0.00 91 1015.6
20260903040034 76 86 0.0 0.0 0.00 0.00 0.00 91 1015.6
20260903035530 76 86 0.0 0.0 0.00 0.00 0.00 90 1015.7
20260903035030 76 86 0.0 0.0 0.00 0.00 0.00 91 1015.6
20260903034530 76 86 0.0 0.0 0.00 0.00 0.00 91 1015.7
20260903034030 76 86 0.0 0.0 0.00 0.00 0.00 91 1015.6
20260903033529 76 86 0.0 0.0 0.00 0.00 0.00 91 1015.6
20260903033030 76 86 0.0 0.0 0.00 0.00 0.00 90 1015.7
20260903032530 77 86 0.0 0.0 0.00 0.00 0.00 90 1015.7
20260903032032 77 86 0.0 0.0 0.00 0.00 0.00 90 1015.7
20260903031529 77 86 0.0 0.0 0.00 0.00 0.00 89 1015.7
20260903031029 77 86 0.0 0.0 0.00 0.00 0.00 89 1015.8
20260903030529 77 86 0.0 0.0 0.00 0.00 0.00 90 1015.8
20260903030029 77 86 0.0 0.0 0.00 0.00 0.00 89 1015.8
20260903025531 78 86 0.0 0.0 0.00 0.00 0.00 88 1015.7
20260903025028 78 86 0.0 0.0 0.00 0.00 0.00 89 1015.7
20260903024529 78 86 0.0 0.0 0.00 0.00 0.00 89 1015.7
20260903024029 78 86 0.0 0.0 0.00 0.00 0.00 89 1015.6
20260903023528 78 86 0.0 0.0 0.00 0.00 0.00 89 1015.6
20260903023033 77 86 0.0 0.0 0.00 0.00 0.00 89 1015.6
20260903022528 77 86 0.0 0.0 0.00 0.00 0.00 89 1015.5
20260903022028 78 86 0.0 0.0 0.00 0.00 0.00 88 1015.6
20260903021529 78 86 0.0 0.0 0.00 0.00 0.00 88 1015.6
20260903021028 78 86 0.0 0.0 0.00 0.00 0.00 87 1015.6
20260903020529 78 86 0.0 0.0 0.00 0.00 0.00 87 1015.6
20260903020037 79 86 0.0 0.0 0.00 0.00 0.00 86 1015.5
20260903015527 79 86 0.0 0.0 0.00 0.00 0.00 86 1015.5
20260903015027 79 86 0.0 0.0 0.00 0.00 0.00 85 1015.5
20260903014528 79 86 0.0 0.0 0.00 0.00 0.00 85 1015.4
20260903014030 80 86 0.0 0.0 0.00 0.00 0.00 84 1015.5
20260903013526 79 86 0.0 0.0 0.00 0.00 0.00 84 1015.3
20260903013026 80 86 0.0 0.0 0.00 0.00 0.00 84 1015.3
20260903012525 80 86 0.0 0.0 0.00 0.00 0.00 83 1015.3
20260903012025 80 86 0.0 0.0 0.00 0.00 0.00 82 1015.1
20260903011525 80 86 0.0 0.0 0.00 0.00 0.00 82 1015.1
20260903011028 81 86 0.0 0.0 0.00 0.00 0.00 82 1015.0
20260903010523 81 86 0.0 0.0 0.00 0.00 0.00 81 1014.9
20260903010028 82 86 0.0 0.0 0.00 0.00 0.00 80 1014.9
20260903005524 82 86 0.0 0.0 0.00 0.00 0.00 81 1014.9
20260903005023 82 86 0.0 0.0 0.00 0.00 0.00 79 1014.9
20260903004523 83 86 0.0 0.0 0.00 0.00 0.00 76 1014.8
20260903004023 83 86 0.0 0.0 0.00 0.00 0.00 76 1014.8
20260903003522 83 86 0.0 0.0 0.00 0.00 0.00 76 1014.7
20260903003023 84 86 0.0 0.0 0.00 0.00 0.00 73 1014.7
20260903002523 84 86 0.0 0.0 0.00 0.00 0.00 73 1014.7
20260903002027 84 86 0.0 0.0 0.00 0.00 0.00 74 1014.7
20260903001522 84 86 0.0 0.0 0.00 0.00 0.00 73 1014.7
20260903001026 85 86 0.0 0.0 0.00 0.00 0.00 72 1014.7
20260903000521 86 86 0.0 0.0 0.00 0.00 0.00 70 1014.6
20260903000021 86 86 0.0 0.0 0.00 0.00 0.00 68 1014.6
20260902235520 86 86 0.0 0.0 0.00 0.00 0.00 67 1014.5
20260902235021 87 86 0.0 0.0 0.00 0.00 0.00 69 1014.5
20260902234520 87 86 0.0 0.0 0.00 0.00 0.00 67 1014.6
20260902234020 88 86 0.0 0.0 0.00 0.00 0.00 66 1014.6
20260902233520 88 86 0.0 0.0 0.00 0.00 0.00 65 1014.6
20260902233020 89 86 0.0 0.0 0.00 0.00 0.00 61 1014.5
20260902232519 89 86 0.0 0.0 0.00 0.00 0.00 62 1014.5
20260902232019 89 86 0.0 0.0 0.00 0.00 0.00 61 1014.6
20260902231524 90 86 0.0 0.0 0.00 0.00 0.00 60 1014.5
20260902231019 90 86 0.0 0.0 0.00 0.00 0.00 58 1014.6
20260902230521 90 86 0.0 0.0 0.00 0.00 0.00 58 1014.6
20260902230017 91 86 0.0 0.0 0.00 0.00 0.00 57 1014.6
20260902225521 91 86 0.0 0.0 0.00 0.00 0.00 58 1014.6
20260902225017 91 86 0.0 0.0 0.00 0.00 0.00 56 1014.6
20260902224516 91 86 0.0 0.0 0.00 0.00 0.00 56 1014.7
20260902224015 92 86 0.0 0.0 0.00 0.00 0.00 56 1014.7
20260902223514 93 86 0.0 0.0 0.00 0.00 0.00 54 1014.7
20260902223020 93 86 0.0 0.0 0.00 0.00 0.00 53 1014.7
20260902222516 93 86 0.0 0.0 0.00 0.00 0.00 52 1014.7
20260902222016 93 86 0.0 0.0 0.00 0.00 0.00 53 1014.7
20260902221519 94 85 0.0 0.0 0.00 0.00 0.00 54 1014.7
20260902221013 94 110 0.0 0.0 0.00 0.00 0.00 51 1014.8
20260902220512 94 93 0.0 0.0 0.00 0.00 0.00 53 1014.8
20260902220012 94 91 0.0 0.0 0.00 0.00 0.00 53 1014.8
20260902215512 94 19 0.0 0.0 0.00 0.00 0.00 52 1014.8
20260902215013 93 37 0.0 0.0 0.00 0.00 0.00 51 1014.8
20260902214519 93 17 0.0 0.0 0.00 0.00 0.00 52 1014.8
20260902214013 94 17 0.0 0.0 0.00 0.00 0.00 52 1014.7
20260902213511 94 38 0.0 0.0 0.00 0.00 0.00 53 1014.8
20260902213014 94 67 0.0 0.0 0.00 0.00 0.00 49 1014.8
20260902212510 94 67 0.0 0.0 0.00 0.00 0.00 49 1014.8